Weather History for Lancaster, CA

Change the Weather History Date:

Saturday, November 12, 2011

  Actual Average Record
Temperature  
Mean Temperature 51 °F 53 °F  
Max Temperature 59 °F 68 °F 81 °F (1989)
Min Temperature 43 °F 37 °F 19 °F (2012)
Degree Days  
Heating Degree Days 14    
Month to date heating degree days 199  
Since 1 July heating degree days 319  
Cooling Degree Days 0    
Month to date cooling degree days 3  
Year to date cooling degree days 1754  
Moisture  
Dew Point 40 °F    
Average Humidity 68    
Maximum Humidity 96    
Minimum Humidity 39    
Precipitation  
Precipitation 0.14 in 0.02 in 0.34 in (2001)
Month to date precipitation 0.26 0.19  
Year to date precipitation 4.33 5.88  
Since 1 July precipitation 0.68 0.97  
Snow  
Snow 0.00 in - 0.00 in ()
Month to date snowfall 0.0  
Since 1 July snowfall 0.0  
Since 1 September snowfall 0.0  
Snow Depth 0.00 in    
Sea Level Pressure  
Sea Level Pressure 29.88 in    
Wind  
Wind Speed 5 mph (NNE)    
Max Wind Speed 20 mph    
Max Gust Speed 25 mph    
Visibility 10 miles    
Events Rain    
T = Trace of Precipitation, MM = Missing Value Source: NWS Daily Summary

Daily Weather History Graph

Daily Weather History Graph

Search for Another Location

Airport:

Trip Planner

Search our weather history database for the weather conditions in past years. The results will help you decide how hot, cold, wet, or windy it might be!

Date:

Astronomy

Nov. 12, 2011 Rise Set
Actual Time 6:23 AM PST 4:49 PM PST
Civil Twilight 5:57 AM PST 5:16 PM PST
Nautical Twilight 5:26 AM PST 5:46 PM PST
Astronomical Twilight 4:56 AM PST 6:16 PM PST
Moon 6:14 PM PST (11/12) 8:05 AM PST (11/12)
Length of Visible Light 11h 19m
Length of Day
10h 26m
Waning Gibbous, 96% of the Moon is Illuminated
Nov 12
Waning Gibbous
Nov 18
Last Quarter
Nov 24
New
Dec 2
First Quarter
Dec 10
Full

Hourly Weather History & Observations

Time (PST) Temp. Windchill Dew Point Humidity Pressure Visibility Wind Dir Wind Speed Gust Speed Precip Events Conditions
12:56 AM 51.1 °F - 37.0 °F 59% 29.83 in 10.0 mi NE 5.8 mph - 0.00 in   Overcast
1:56 AM 46.0 °F 39.0 °F 39.0 °F 76% 29.89 in 10.0 mi WNW 17.3 mph 25.3 mph 0.00 in Rain Light Rain
2:14 AM 46.4 °F 41.1 °F 39.2 °F 76% 29.90 in 9.0 mi West 11.5 mph 25.3 mph 0.01 in Rain Light Rain
2:56 AM 46.0 °F 43.1 °F 39.9 °F 79% 29.90 in 6.0 mi West 5.8 mph - 0.10 in Rain Rain
3:56 AM 45.0 °F 41.8 °F 42.1 °F 90% 29.88 in 10.0 mi NNW 5.8 mph - 0.03 in   Overcast
4:56 AM 43.0 °F - 41.0 °F 93% 29.87 in 10.0 mi Calm Calm - 0.01 in   Overcast
5:56 AM 44.1 °F 42.5 °F 41.0 °F 89% 29.87 in 10.0 mi SW 3.5 mph - N/A   Overcast
6:56 AM 44.1 °F - 41.0 °F 89% 29.88 in 10.0 mi Calm Calm - N/A   Mostly Cloudy
7:56 AM 45.0 °F 43.5 °F 42.1 °F 90% 29.89 in 10.0 mi West 3.5 mph - N/A   Scattered Clouds
8:56 AM 46.9 °F - 39.9 °F 77% 29.92 in 10.0 mi Calm Calm - N/A   Overcast
9:56 AM 48.0 °F - 41.0 °F 77% 29.91 in 10.0 mi Calm Calm - N/A   Overcast
10:56 AM 52.0 °F - 42.1 °F 69% 29.90 in 10.0 mi Calm Calm - N/A   Overcast
11:56 AM 55.9 °F - 41.0 °F 57% 29.87 in 10.0 mi Variable 5.8 mph - N/A   Scattered Clouds
12:56 PM 57.0 °F - 41.0 °F 55% 29.85 in 10.0 mi ENE 10.4 mph - N/A   Overcast
1:56 PM 57.0 °F - 42.1 °F 57% 29.85 in 10.0 mi NE 9.2 mph - N/A   Mostly Cloudy
2:56 PM 57.0 °F - 39.0 °F 51% 29.84 in 10.0 mi NE 9.2 mph - N/A   Overcast
3:56 PM 55.9 °F - 41.0 °F 57% 29.85 in 10.0 mi NE 9.2 mph - N/A   Overcast
4:56 PM 55.0 °F - 41.0 °F 59% 29.86 in 10.0 mi NNE 8.1 mph - N/A   Overcast
5:56 PM 55.0 °F - 39.0 °F 55% 29.86 in 10.0 mi NE 8.1 mph - N/A   Overcast
6:56 PM 54.0 °F - 39.9 °F 59% 29.88 in 10.0 mi Calm Calm - N/A   Overcast
7:56 PM 52.0 °F - 39.9 °F 63% 29.89 in 10.0 mi NNE 5.8 mph - N/A   Overcast
8:56 PM 51.1 °F - 39.9 °F 66% 29.89 in 10.0 mi NNE 6.9 mph - N/A   Mostly Cloudy
9:56 PM 50.0 °F - 39.0 °F 66% 29.90 in 10.0 mi ENE 5.8 mph - N/A   Scattered Clouds
10:56 PM 52.0 °F - 39.9 °F 63% 29.92 in 10.0 mi South 3.5 mph - N/A   Overcast
11:56 PM 50.0 °F - 39.9 °F 68% 29.91 in 10.0 mi Calm Calm - N/A   Mostly Cloudy